Regional Weather Roundup
Issued by NWS

Home | Current Version | Previous Version | Text Only | Print | Product List | Glossary On
Versions: 1 2 3 4 5 6 7 8 9 10 11 12 13 14 15 16 17 18 19 20 21 22 23 24 25 26 27 28 29 30 31 32 33 34 35 36 37 38 39 40 41 42 43 44 45 46 47 48 49 50
000
ASUS45 KREV 141010
RWRNV
NEVADA REGIONAL WEATHER ROUNDUP
NATIONAL WEATHER SERVICE RENO NV
200 AM PST SUN FEB 14 2016

NOTE: "FAIR" INDICATES FEW OR NO CLOUDS BELOW 12,000 FEET WITH NO
SIGNIFICANT WEATHER AND/OR OBSTRUCTIONS TO VISIBILITY.

NVZ001-003-004-141100-
WESTERN NEVADA

CITY           SKY/WX    TMP DP  RH WIND       PRES   REMARKS
RENO           MOCLDY    40  29  64 SW3       30.30F
CARSON CITY    FAIR      37  27  65 CALM      30.32F
MINDEN         FAIR      34  25  69 SE8       30.32F
SLIDE MTN        N/A     32  12  43 VRB9        N/A
PYRAMID LAKE     N/A     50 N/A N/A SW6         N/A
FALLON         MOCLDY    40  32  73 S7        30.28F
LOVELOCK       CLOUDY    35  26  69 SW3       30.25F
HAWTHORNE      CLEAR     39  30  70 W7        30.31R
$$

NVZ002-CAZ072-073-141100-
NORTHERN AND CENTRAL SIERRA

CITY           SKY/WX    TMP DP  RH WIND       PRES   REMARKS
S. LAKE TAHOE  PTCLDY    30  24  78 CALM      30.37S
TRUCKEE        MOCLDY    28  27  93 CALM      30.35F
SQUAW VLY 8000   N/A     37  21  52 W2          N/A
SUSANVILLE     CLEAR     39  30  70 W5        30.32F
BLUE CANYON    PTCLDY    49  20  31 CALM      30.34F
MAMMOTH LAKES  FAIR      25  18  74 CALM      30.36R
BRIDGEPORT     FAIR      29  19  66 CALM      30.36R
$$

NVZ030-031-036-141100-
NORTHERN NEVADA

CITY           SKY/WX    TMP DP  RH WIND       PRES   REMARKS
ELKO           CLOUDY    27  24  89 CALM      30.23F
WINNEMUCCA     CLOUDY    37  32  82 S3        30.25F
WENDOVER       CLOUDY    27  25  93 NE3       30.24S VSB 1/2
$$

NVZ035-037-141100-
CENTRAL NEVADA

CITY           SKY/WX    TMP DP  RH WIND       PRES   REMARKS
ELY            MOCLDY    18  11  74 S13       30.27F
EUREKA           N/A     26  17  68 S3        30.29F
$$

NVZ013-014-141100-
SOUTH CENTRAL NEVADA

CITY           SKY/WX    TMP DP  RH WIND       PRES   REMARKS
TONOPAH        MOCLDY    34  24  67 N10       30.29F
$$

NVZ017-020-022-141100-
SOUTHERN NEVADA

CITY           SKY/WX    TMP DP  RH WIND       PRES   REMARKS
LAS VEGAS      CLEAR     53  21  28 CALM      30.11S
N. LAS VEGAS   CLEAR     59  16  18 N16       30.13F
NELLIS AFB     CLEAR     51  22  32 CALM      30.13S
HENDERSON      CLEAR     56  20  24 E8        30.16F
MERCURY        CLEAR     45  19  35 W5        30.20F
$$



USA.gov is the U.S. government's official web portal to all federal, state and local government web resources and services.